Home > Weather > Rankweil > Past weeks

Flag for Austria Past Weather in Rankweil, Vorarlberg, Austria — Yesterday and Last 2 Weeks

Now
69 °F

Mild.


Feels Like: 69 °F
Forecast: 56 / 76 °F
Wind: 1 mph from North

Location: Feldkirch

Current Time: Jul 2, 2016 at 9:37:53 AM

Latest Report: Jul 2, 2016 at 9:00 AM


Visibility: N/A

Pressure: 29.98 "Hg

Humidity: 82%

Dew Point: 64 °F

Location of RankweilLocation

Past Weather in Rankweil — Graph

°F

Rankweil Temperature Yesterday

Maximum temperature yesterday: 78 °F (at 3:00 PM)
Minimum temperature yesterday: 59 °F (at 5:00 AM)
Average temperature yesterday: 69 °F

High & Low Weather Summary for the Past Weeks

 TemperatureHumidityPressure
High88 °F (Jun 23, 6:00 PM)97% (Jun 19, 5:00 AM)30.27 "Hg (Jun 19, 5:00 AM)
Low47 °F (Jun 17, 8:00 AM)41% (Jun 24, 3:00 PM)29.84 "Hg (Jun 17, 3:00 PM)
Average66 °F74%30.06 "Hg
* Reported Jun 17 8:00 AM — Jul 2 8:00 AM, Rankweil, Weather by CustomWeather, © 2016

Note: Actual official high and low records may vary slightly from our data, if they occured in-between our weather recording intervals... More about our weather records

Advertising

Rankweil Weather History for the Previous 24 Hours

Scroll right to see more
 ConditionsComfort  
Time TempWeatherWind HumidityBarometerVisibility
8:00 AM
Sat, Jul 2
67 °FMild.No wind84%29.97 "HgN/A
7:00 AM66 °FOvercast.1 mph81%29.96 "Hg12 mi
6:00 AM64 °FMild.1 mph86%29.96 "HgN/A
5:00 AM66 °FMild.1 mph84%29.94 "HgN/A
4:00 AM69 °FMild.2 mph72%29.94 "HgN/A
3:00 AM69 °FMild.6 mph74%29.96 "HgN/A
2:00 AM69 °FMild.2 mph79%29.98 "HgN/A
1:00 AM69 °FFog.1 mph78%29.99 "HgN/A
12:00 AM68 °FFog.1 mph88%30.00 "HgN/A
11:00 PM
Fri, Jul 1
71 °FFog.2 mph82%30.00 "HgN/A
10:00 PM72 °FMild.1 mph73%29.97 "HgN/A
9:00 PM74 °FMild.No wind64%29.95 "HgN/A
8:00 PM76 °FMild.1 mph60%29.94 "HgN/A
7:00 PM77 °FWarm.2 mph58%29.94 "HgN/A
6:00 PM78 °FWarm.5 mph58%29.94 "HgN/A
5:00 PM78 °FWarm.2 mph55%29.95 "HgN/A
4:00 PM78 °FWarm.5 mph51%29.95 "HgN/A
3:00 PM78 °FWarm.3 mph56%29.96 "HgN/A
2:00 PM77 °FWarm.3 mph56%29.97 "HgN/A
1:00 PM76 °FMild.2 mph62%29.99 "HgN/A
12:00 PM75 °FMild.1 mph65%30.01 "HgN/A
11:00 AM74 °FScattered clouds.1 mph67%30.02 "Hg19 mi
10:00 AM71 °FMild.1 mph66%30.04 "HgN/A
9:00 AM67 °FMild.1 mph72%30.05 "HgN/A
Weather by CustomWeather, © 2016

See weather overviewHow to use our weather pages